Location: Warszawa
(52.2500°N, 21.0000°E)
Time: 14:43:39
(UTC+02:00)

Vanguard 2 - Pass Details

Date: 08 February 2023
Orbit: 553 x 2927 km, 32.9° (Epoch: 27 March)

Event Time Altitude Azimuth Distance (km) Brightness Sun altitude
Rises 01:10:48 0° 266° (W) 6,161 - -49.6°
Reaches altitude 10° 01:15:36 10° 255° (WSW) 5,410 - -49.2°
Maximum altitude 01:27:56 26° 208° (SSW) 4,518 - -48.1°
Drops below altitude 10° 01:40:41 10° 160° (SSE) 5,574 - -46.9°
Exits shadow 01:43:39 - 154° (SSE) 6,022 11.9 -46.6°
Sets 01:45:48 0° 149° (SSE) 6,373 12.1 -46.4°
